Location: Allaines
(49.9632°N, 2.9458°E)
Time: 09:26:50
(UTC+00:00)

Cosmos 1953 Rocket - Pass Details

Date: 09 April 2020
Orbit: 604 x 635 km, 82.5° (Epoch: 22 May)

Event Time Altitude Azimuth Distance (km) Brightness Sun altitude
Rises 19:24:59 0° 348° (NNW) 2,937 7.6 -8.7°
Reaches altitude 10° 19:27:13 10° 347° (NNW) 2,028 6.7 -9.0°
Maximum altitude 19:31:43 76° 262° (W) 661 3.8 -9.7°
Drops below altitude 10° 19:36:11 10° 178° (S) 2,017 5.9 -10.3°
Sets 19:38:25 0° 176° (S) 2,920 6.7 -10.7°
